MET'MAP v2.0
soon released !

Expected late october,
this new version will be
more efficient, smarter,
and hosted on a brand new
server x3 powerfull...
...and still free !


Not compatible ?
Try the mobile version !

LOG IN : | Subscribe | Disclaimer | Who is Orbifly ? |
ICAO code :

TAF - LFOR Chartres Champhol - 28 Feb 2020 07:39 UTC
Data Sources :     NOAA   


- Airport Elevation : 509 ft
- IATA code : QTJ
- No reported NOTAMs.


LFOR - Chartres Champhol

Latest METAR recorded : 0000/00/00 G :28 TAF ETNG 280500Z 2806/2821 21008KT CAVOK BECMG 2815/2818 18012G20KT 5000 -RADZ BKN012 TEMPO 2818/2821 3500 DZRA BKN008
NO TAF


MET'MAP, your aeronautical weather chart ! - Copyright ORBIFLY December 2007

Programming & Development : Alexandra Zaïnal
Co-Developer : Marc-Olivier Méhu
Technical & hardware support : Manuel Goepfert
Concept & Financing : Baudouin d'Aumeries